Home > Weather > Sibiu > Past weeks

Flag for Romania Weather for the Past 2 Weeks in Sibiu, Romania

Now
32 °F

Sunny.


Feels Like: 29 °F
Forecast: 28 / 47 °F
Wind: 3 mph from East

Location: Sibiu Airport

Current Time: Feb 12, 2016 at 9:56:49 AM

Latest Report: Feb 12, 2016 at 9:30 AM


Visibility: 10 mi

Pressure: 29.89 "Hg

Humidity: 80%

Dew point: 27 °F

Location of SibiuLocation

Historic Weather in Sibiu — Graph

°F

Sibiu Temperature Yesterday

Maximum temperature yesterday: 45 °F (at 3:00 PM)
Minimum temperature yesterday: 30 °F (at 11:00 PM)
Average temperature yesterday: 39 °F

High & Low Weather Summary for the Past Weeks

 TemperatureHumidityPressure
High59 °F (Feb 2, 1:00 PM)100% (Jan 28, 9:00 AM)30.42 "Hg (Jan 28, 9:00 AM)
Low21 °F (Feb 7, 5:30 AM)38% (Feb 8, 2:00 PM)29.33 "Hg (Feb 10, 4:30 PM)
Average39 °F81%30.06 "Hg
* Reported Jan 28 9:00 AM — Feb 12 9:00 AM, Sibiu, Weather by CustomWeather, © 2016

Note: Actual official high and low records may vary slightly from our data, if they occured in-between our weather recording intervals... More about our weather records

Advertising

Sibiu Weather History for the Previous 24 Hours

 ConditionsComfort  
Time TempWeatherWind HumidityBarometerVisibility
9:00 AM
Fri, Feb 12
27 °FSunny.3 mph93%29.89 "Hg10 mi
8:30 AM28 °FSunny.5 mph80%29.89 "Hg10 mi
8:00 AM27 °FSunny.3 mph86%29.89 "Hg10 mi
7:30 AM25 °FClear.3 mph93%29.89 "Hg10 mi
7:00 AM23 °FClear.2 mph93%29.89 "Hg10 mi
6:30 AM23 °FClear.2 mph93%29.89 "Hg10 mi
6:00 AM25 °FClear.1 mph86%29.89 "Hg10 mi
5:30 AM23 °FClear.2 mph93%29.86 "Hg10 mi
5:00 AM25 °FClear.No wind93%29.86 "Hg10 mi
4:00 AM25 °FClear.1 mph93%29.86 "Hg10 mi
3:00 AM25 °FClear.1 mph93%29.86 "Hg10 mi
2:00 AM25 °FClear.No wind93%29.86 "Hg6 mi
1:00 AM28 °FClear.2 mph93%29.86 "Hg5 mi
11:00 PM
Thu, Feb 11
30 °FPassing clouds.No wind86%29.83 "Hg5 mi
10:00 PM32 °FPassing clouds.5 mph87%29.83 "HgN/A
9:00 PM36 °FPassing clouds.1 mph81%29.83 "HgN/A
8:30 PM34 °FPassing clouds.6 mph87%29.83 "HgN/A
8:00 PM32 °FPassing clouds.3 mph87%29.83 "HgN/A
7:30 PM32 °FPassing clouds.7 mph93%29.83 "HgN/A
7:00 PM37 °FPassing clouds.5 mph75%29.80 "HgN/A
6:30 PM37 °FPassing clouds.5 mph75%29.80 "HgN/A
6:00 PM39 °FPassing clouds.1 mph70%29.80 "HgN/A
5:30 PM41 °FOvercast.6 mph61%29.80 "HgN/A
5:00 PM41 °FOvercast.7 mph61%29.80 "HgN/A
4:30 PM43 °FOvercast.8 mph57%29.77 "HgN/A
4:00 PM43 °FPartly sunny.13 mph57%29.77 "HgN/A
3:30 PM45 °FScattered clouds.13 mph49%29.77 "HgN/A
3:00 PM45 °FPartly sunny.13 mph53%29.74 "HgN/A
2:30 PM43 °FScattered clouds.14 mph53%29.74 "HgN/A
2:00 PM43 °FPartly sunny.20 mph53%29.74 "HgN/A
1:30 PM43 °FPartly sunny.15 mph57%29.74 "HgN/A
1:00 PM43 °FPartly sunny.18 mph57%29.74 "HgN/A
12:30 PM43 °FScattered clouds.20 mph61%29.71 "HgN/A
12:00 PM41 °FPartly sunny.14 mph66%29.74 "HgN/A
11:30 AM39 °FPartly sunny.17 mph70%29.74 "HgN/A
11:00 AM41 °FPartly sunny.21 mph66%29.71 "HgN/A
10:30 AM39 °FScattered clouds.16 mph75%29.71 "HgN/A
10:00 AM39 °FBroken clouds.13 mph70%29.71 "HgN/A
9:30 AM39 °FPartly sunny.15 mph70%29.68 "HgN/A
9:00 AM37 °FPartly sunny.15 mph70%29.65 "HgN/A
Weather by CustomWeather, © 2016

See weather overviewHow to use our weather pages